Regional Weather Roundup
Issued by NWS

Home | Current Version | Previous Version | Graphics & Text | Print | Product List | Glossary On
Versions: 1 2 3 4 5 6 7 8 9 10 11 12 13 14 15 16 17 18 19 20 21 22 23 24 25 26 27 28 29 30 31 32 33 34 35 36 37 38 39 40 41 42 43 44 45 46 47 48 49 50
000
ASUS43 KMKX 212100
RWRWI

WISCONSIN REGIONAL WEATHER ROUNDUP
NATIONAL WEATHER SERVICE MILWAUKEE/SULLIVAN WI
400 PM CDT SAT OCT 21 2017

NOTE: "FAIR" INDICATES FEW OR NO CLOUDS BELOW 12,000 FEET WITH NO
SIGNIFICANT WEATHER AND/OR OBSTRUCTIONS TO VISIBILITY.

WIZ001-002-006>008-014>016-023>028-212200-
NORTHWEST WISCONSIN

CITY           SKY/WX    TMP DP  RH WIND       PRES   REMARKS
SUPERIOR ARPT  CLOUDY    63  60  90 S12G17    29.65F
ASHLAND        CLOUDY    67  57  70 S15G26    29.70F
HAYWARD        CLOUDY    64  57  78 S14       29.72F
SIREN          CLOUDY    65  58  79 S20       29.68F
CUMBERLAND     CLOUDY    63  57  82 S14G21    29.73R
RICE LAKE      CLOUDY    66  58  76 S20       29.74S
CHETEK         CLOUDY    66  59  78 S9G18     29.75S
LADYSMITH      CLOUDY    68  58  70 S16G25    29.78S
EAU CLAIRE     CLOUDY    67  58  72 S22G28    29.76S
MENOMONIE      CLOUDY    67  59  74 SE15G22   29.75S
NEW RICHMOND   CLOUDY    65  57  77 S15G21    29.70S
OSCEOLA        CLOUDY    65  59  80 S16       29.71F
$$

WIZ003>005-009-010-017-018-212200-
NORTH CENTRAL WISCONSIN

CITY           SKY/WX    TMP DP  RH WIND       PRES   REMARKS
MANITOWISH WTR CLOUDY    64  58  78 S17G24    29.79S
ARBOR VITAE    MOSUNNY   65  57  75 S14G26    29.81S
WOODRUFF       MOSUNNY   65  57  75 S14G26    29.81S
RHINELANDER    CLOUDY    67  57  70 S9        29.84S
EAGLE RIVER    NOT AVBL
LAND O LAKES   CLOUDY    68  55  64 S9G20     29.83S
PHILLIPS       CLOUDY    65  58  78 S14G24    29.78S
TOMAHAWK       CLOUDY    67  56  68 S9G16     29.83F
MEDFORD        CLOUDY    64  56  75 S14       29.83S
MERRILL        CLOUDY    69  56  65 SW8       29.84F
$$

WIZ029-030-035-036-043>047-212200-
CENTRAL WISCONSIN

CITY           SKY/WX    TMP DP  RH WIND       PRES   REMARKS
WAUSAU         CLOUDY    71  56  58 S13       29.83F
MOSINEE        PTSUNNY   72  57  60 S13       29.85F
MARSHFIELD     CLOUDY    68  56  65 SW7       29.83F
STEVENS POINT  CLOUDY    71  56  57 S14G21    29.86S
WAUPACA        MOSUNNY   76  57  50 S14       29.87S
WAUTOMA        NOT AVBL
WISC RAPIDS    CLOUDY    74  58  57 S9        29.85S
CAMP DOUGLAS   NOT AVBL
$$

WIZ011>013-019>022-031-037>040-048>050-212200-
NORTHEAST WISCONSIN

CITY           SKY/WX    TMP DP  RH WIND       PRES   REMARKS
ANTIGO         CLOUDY    70  56  61 S22       29.86S
SHAWANO        SUNNY     75  55  48 S13       29.87R
OCONTO         SUNNY     68  53  60 SE12G20   29.89S
STURGEON BAY   SUNNY     62  54  74 S25G35    29.91F
GREEN BAY      SUNNY     72  57  59 SE14      29.88F
MANITOWOC      SUNNY     62  54  74 S21G29    29.94F
APPLETON       MOSUNNY   73  52  46 S16       29.98S
CLINTONVILLE   SUNNY     75  54  46 S12G20    29.86S
OSHKOSH        SUNNY     75  58  55 S20G25    29.88S
$$

WIZ032>034-041-042-053>061-212200-
SOUTHWEST WISCONSIN

CITY           SKY/WX    TMP DP  RH WIND       PRES   REMARKS
LA CROSSE      CLOUDY    70  58  65 CALM      29.80F
SPARTA         PTSUNNY   71  59  65 CALM      29.83S
VIROQUA        CLOUDY    73  59  62 S10G16    29.84S
BOSCOBEL       CLOUDY    78  58  49 S10G17    29.84R
PRAIRIE DU CHI CLOUDY    77  56  48 S12G21    29.82R
PLATTEVILLE    SUNNY     77  59  53 S24       29.87S
$$

WIZ056-057-062-063-064-067-068-212200-
SOUTH CENTRAL WISCONSIN

CITY           SKY/WX    TMP DP  RH WIND       PRES   REMARKS
REEDSBURG      MOSUNNY   76  59  56 S18       29.86R
BARABOO/DELLS  PTSUNNY   75  57  53 S22       29.86F
LONE ROCK      NOT AVBL
MINERAL POINT  MOSUNNY   77  57  50 S22G31    29.87F
MADISON        PTSUNNY   76  57  51 S20G28    29.88S
MIDDLETON      SUNNY     78  56  46 S16G29    29.89S
WATERTOWN      SUNNY     75  57  53 S17       29.90F
MONROE         SUNNY     75  54  46 S20G26    29.90S
JANESVILLE     MOSUNNY   79  54  41 S17G23    29.90F
$$

WIZ051-052-058>065-066-070>072-212200-
SOUTHEAST WISCONSIN

CITY           SKY/WX    TMP DP  RH WIND       PRES   REMARKS
MILWAUKEE      MOSUNNY   74  57  55 SE17      29.94F
WAUKESHA       SUNNY     73  54  49 S13G23    29.94F
MILWAUKEE/TIMM SUNNY     75  52  43 S17G24    29.94S
RACINE         SUNNY     68  56  65 S13G24    29.97F
BURLINGTON     SUNNY     77  57  49 S12G22    29.94S
KENOSHA        SUNNY     76  56  49 S15G23    29.95F
FOND DU LAC    SUNNY     77  55  46 S15G24    29.89S
SHEBOYGAN      SUNNY     66  56  70 S14       29.94S
WEST BEND      SUNNY     75  52  43 S12G20    29.92S
JUNEAU         SUNNY     74  56  53 S22       29.92S
$$

LSZ147-162-212200-
LAKE SUPERIOR

STATION/POSITION TIME  TEMP    WIND        PRES    WAVE
                       AIR SEA DIR/SP/G            HT/PER
                 (UTC) (F)     (DEG/KT/KT) (MB)    (FT/S)
W MID LAKE BUOY  1950   57 52              1006.6R   2/ 4
DEVILS ISLAND    2000   62     180/ 14/ 19 1005.2F
PORT WING        1940          170/ 12/ 23 1005.1
SAXON HARBOR     2040   69     190/  9/ 19 1005.8F
$$

LMZ867-665-643>646-212200-
LAKE MICHIGAN

STATION/POSITION TIME  TEMP    WIND        PRES    WAVE
                       AIR SEA DIR/SP/G            HT/PER
                 (UTC) (F)     (DEG/KT/KT) (MB)    (FT/S)
S GREEN BAY BUOY 2030   64 59  160/ 12/ 14 1012.3F
N MID LAKE BUOY  1950   62 58  180/ 19/ 23 1014.1F   6/ 6
NORTHPORT PIER   2040   61     160/ 15/ 24 1013.2F
KEWAUNEE LAKESHO 2030   54     170/ 15/ 17 1013.2F
SHEBOYGAN LAKESH 2000   56     180/ 19/ 20 1013.8F
PORT WASHINGTON  2030   61     190/  8/ 13 1014.9F
ATWATER BUOY     1909   58 53  160/ 21/ 25 1014.2
MILWAUKEE LAKESH 2030   59     150/ 19/ 20   N/A
S MID LAKE BUOY  1950   64 61  150/ 19/ 23 1015.9F   4/ 5
KENOSHA   LAKESH 2000   60     170/ 15/ 16 1014.9
$$

TC  - TEMPERATURE IN CELSIUS
VSB - VISIBILITY IN STATUTE MILES
WCI - WIND CHILL INDEX
HX  - HEAT INDEX





USA.gov is the U.S. government's official web portal to all federal, state and local government web resources and services.